Theta_e
318 316 319 320 318 317 316 317 319 319 320 319 320 321 321 321 319 318 321 321 320 320 319 318 318 318 319 320 321 322 324 327 330 330 327 337 352 352 353 351 349 349 348 345
317 320 319 316 316 316 317 319 320 320 319 320 321 322 322 320 318 321 321 321 320 320 320 319 318 317 318 319 320 323 323 326 328 329 330 331 348 351 352 353 351 350 350 347
317 318 316 315 316 317 318 319 320 319 319 321 322 323 321 319 319 321 322 321 320 319 319 318 318 316 316 318 318 321 322 323 325 328 331 331 345 351 352 353 352 351 351 350
316 317 315 316 317 317 318 319 318 319 322 324 322 322 322 321 321 321 321 321 319 319 319 319 318 316 315 316 317 317 320 321 322 326 332 335 342 350 341 354 353 352 352 351
319 317 316 316 317 317 317 318 319 321 324 324 324 322 323 321 320 320 322 320 319 319 319 318 318 316 315 314 315 315 318 320 320 323 324 327 332 350 342 353 353 352 353 351
316 316 315 316 316 316 317 319 323 325 324 327 326 325 321 322 322 322 319 320 319 319 318 318 316 315 315 314 314 314 315 318 320 320 321 319 326 348 347 351 352 352 352 352
319 317 316 315 317 319 319 323 335 331 329 332 324 323 323 323 323 322 319 319 319 318 318 317 316 315 314 314 313 313 313 317 319 318 319 316 322 345 349 348 352 352 352 353
317 321 318 317 318 320 320 322 327 335 329 327 323 324 325 324 323 320 319 320 319 319 317 316 315 313 313 313 312 312 312 315 317 318 319 316 318 325 347 348 351 353 354 352
319 319 318 317 317 318 323 323 323 325 325 327 325 324 324 324 323 322 322 320 320 318 316 314 313 312 310 311 311 312 312 313 315 318 319 316 316 320 328 346 348 351 351 351
320 320 318 318 317 317 319 321 326 328 330 328 322 323 324 326 325 323 321 320 320 317 315 313 312 311 310 310 310 311 311 312 314 316 318 318 317 319 325 340 348 348 350 351
318 321 322 318 319 321 323 321 321 323 324 328 328 323 324 322 323 321 320 320 319 316 315 313 312 310 309 308 308 310 310 312 313 314 316 318 319 319 321 331 346 344 346 346
317 324 323 320 319 319 319 321 324 329 325 325 325 324 322 322 321 321 320 320 318 316 314 312 311 309 309 307 307 308 309 310 312 313 314 317 320 320 321 325 335 347 346 345
319 321 328 322 321 322 319 319 320 321 322 326 329 323 323 322 322 321 321 319 317 316 313 311 310 309 308 307 306 306 307 308 310 312 313 316 319 323 321 321 326 338 343 342
316 320 324 326 321 320 323 321 320 321 328 324 323 322 321 321 322 321 320 318 317 315 313 312 309 308 307 306 306 307 307 307 308 310 312 315 317 321 323 322 326 331 337 337
316 320 320 320 319 319 319 319 319 320 322 326 322 322 321 322 321 319 319 318 316 314 313 310 308 308 306 306 305 305 306 306 307 309 311 313 316 319 322 322 325 330 338 334
317 320 321 320 318 319 319 319 319 319 319 320 320 321 320 321 319 319 319 317 315 313 311 309 308 308 306 305 305 305 305 305 306 307 309 312 314 317 321 323 323 327 337 335
318 320 323 325 320 319 323 321 321 321 320 320 322 321 319 320 319 319 318 316 314 312 309 309 308 308 306 305 304 304 304 304 305 306 308 311 313 316 320 324 325 326 334 334
320 321 323 324 322 323 320 322 319 319 319 320 320 319 319 319 318 317 315 315 313 310 310 309 307 306 305 304 303 303 303 304 304 306 308 311 313 316 319 324 326 327 334 340
317 321 326 323 325 322 320 320 320 322 322 317 318 318 318 318 318 317 314 313 312 311 310 308 307 305 304 303 302 302 302 304 304 306 307 310 313 314 318 324 326 328 330 339
318 317 326 323 325 324 321 319 318 317 324 319 317 318 318 318 320 319 315 313 311 310 309 308 306 304 302 302 301 301 302 302 304 305 306 308 311 315 318 323 326 328 330 336
323 323 326 327 325 321 318 318 318 320 325 320 318 319 318 320 319 315 312 311 310 310 308 307 304 302 301 301 300 301 301 302 303 302 303 306 309 314 317 321 326 328 329 334
322 323 322 322 323 323 317 319 323 318 319 317 317 318 318 318 315 313 311 311 311 310 307 306 303 301 300 300 300 300 300 301 302 302 304 307 310 314 319 322 326 326 330 333
325 321 327 322 322 319 319 320 319 318 318 317 317 318 317 316 313 313 312 311 310 308 306 305 302 300 300 300 299 299 300 301 301 303 307 310 313 316 318 321 327 329 330 330
319 320 321 322 319 318 320 319 318 318 317 316 317 317 316 315 313 312 311 310 308 306 305 304 301 300 299 299 298 298 299 300 301 303 310 315 318 321 323 325 327 326 327 329
319 318 319 320 319 316 316 316 317 317 316 317 317 315 314 312 312 311 310 308 307 306 304 304 301 299 299 298 298 298 299 300 301 303 306 308 314 317 319 313 314 320 320 319
318 318 319 325 316 316 317 315 315 316 316 316 315 313 312 311 311 309 308 306 305 304 304 304 301 299 298 297 297 298 298 300 300 302 303 306 309 314 316 318 318 317 316 316
Wind_Speed
3 9 14 3 3 9 11 13 14 12 9 9 15 19 20 13 10 4 4 6 8 11 13 17 18 19 19 21 23 24 26 27 26 28 27 25 36 38 40 37 38 36 39 36
10 14 6 1 7 10 11 13 14 10 4 13 19 18 19 11 7 4 5 5 8 11 12 16 19 21 22 22 22 24 25 26 26 29 28 30 29 37 47 44 43 40 40 36
11 6 7 5 10 11 13 11 11 13 16 21 18 22 12 8 8 9 7 4 8 11 14 16 19 22 22 23 23 23 25 27 28 30 31 34 34 39 41 45 38 40 42 39
10 8 6 9 12 7 12 3 10 15 12 9 7 7 12 18 15 14 9 6 8 11 15 18 19 21 24 25 22 25 24 25 28 29 32 26 36 34 33 45 37 39 40 39
5 7 11 11 10 2 11 10 15 15 16 14 17 9 15 11 15 14 3 5 8 11 15 20 19 23 24 24 22 25 26 24 25 28 27 31 40 40 35 39 35 35 38 37
15 2 7 12 3 10 12 16 19 16 9 8 14 10 9 5 3 3 2 6 10 15 19 22 25 26 24 24 22 23 27 27 25 24 28 33 41 40 30 30 40 33 34 37
14 13 9 6 11 12 12 12 5 5 8 9 6 7 15 8 7 2 4 8 13 18 19 19 20 24 26 22 24 24 26 26 25 24 26 35 36 35 35 33 37 32 32 34
9 11 15 11 10 7 7 5 4 5 7 11 18 9 5 6 7 3 3 8 13 18 19 20 21 24 28 25 25 25 26 27 26 25 24 32 34 32 37 32 25 30 32 31
4 7 9 5 6 6 6 6 9 6 14 11 10 14 14 12 5 9 10 12 17 20 19 21 21 22 23 26 28 27 27 29 25 25 22 26 30 30 29 36 33 25 30 34
3 6 11 8 6 10 11 6 3 4 5 8 10 16 8 6 5 9 12 17 17 19 19 19 18 24 26 23 27 28 27 28 27 26 22 21 25 26 23 20 25 34 26 34
3 5 8 8 12 10 7 10 7 4 7 5 8 5 4 8 7 11 14 18 16 20 19 18 20 26 27 27 28 30 26 27 26 24 26 23 23 22 25 21 20 33 27 33
8 6 7 13 4 3 10 13 12 5 5 7 9 14 11 2 4 13 15 17 18 20 19 17 18 27 24 23 27 28 29 28 27 25 26 26 19 20 19 20 17 26 26 31
8 6 4 7 6 7 9 12 12 7 8 15 11 8 6 9 15 14 18 16 17 19 19 18 18 19 23 24 26 25 26 29 29 28 26 26 24 18 18 17 22 14 29 22
2 8 10 7 4 9 8 13 16 16 11 16 21 25 23 23 22 20 20 17 18 19 18 18 18 18 24 26 25 25 25 27 29 29 27 24 24 23 16 16 16 18 25 38
12 10 14 18 19 18 19 20 20 22 23 21 24 26 25 24 18 17 16 18 18 19 19 19 19 18 24 26 25 25 26 27 27 28 29 25 24 22 21 19 17 19 22 24
15 9 10 17 17 18 23 22 23 25 24 26 26 25 19 12 9 16 17 17 18 18 18 19 20 19 20 25 26 27 27 26 27 27 29 27 23 21 20 16 19 18 16 29
18 13 10 15 13 15 14 18 19 22 20 17 19 18 15 17 16 15 16 16 15 16 17 19 17 17 23 27 28 26 26 27 28 27 27 27 24 21 19 18 12 19 17 30
16 18 9 9 11 13 5 1 5 8 11 12 14 15 15 14 14 14 15 10 13 16 18 18 15 24 28 29 28 27 26 26 26 28 26 26 23 22 18 16 13 16 14 12
17 14 4 5 10 17 16 8 13 3 8 12 12 10 10 12 12 12 1 8 15 18 15 17 21 26 27 26 26 27 27 26 24 24 25 24 23 20 19 15 11 12 14 11
21 17 10 9 5 6 1 4 4 2 9 6 2 7 11 8 9 9 14 14 15 19 17 16 21 24 25 25 27 27 27 27 25 24 24 24 25 20 17 14 9 12 11 8
12 14 16 14 10 10 11 3 6 4 2 3 7 11 11 9 8 12 12 14 18 17 19 15 23 21 24 26 27 24 26 25 26 26 25 25 24 20 19 14 8 8 12 10
12 9 7 12 9 15 12 13 7 2 3 5 9 11 10 9 8 9 13 13 14 15 18 17 22 21 25 26 26 25 25 30 30 27 24 22 21 17 14 13 8 7 5 6
9 10 9 11 8 8 6 9 14 4 6 8 10 10 8 7 8 12 11 12 12 15 15 16 20 22 24 25 25 25 29 32 31 29 25 17 20 14 13 11 6 6 1 5
16 14 12 10 11 15 9 13 13 11 11 10 9 7 6 7 9 10 10 11 11 14 13 16 20 20 23 26 27 26 28 31 28 26 20 10 6 8 9 6 1 8 12 10
12 9 14 16 14 11 11 10 13 14 11 7 6 5 6 7 8 9 10 10 10 12 11 14 17 19 23 26 26 28 31 30 25 20 19 18 12 10 5 4 4 6 2 7
13 13 12 8 8 9 12 6 4 6 7 6 6 5 5 5 7 8 9 10 10 12 10 13 17 19 24 25 26 27 31 29 25 20 20 18 15 13 8 6 4 10 8 9
Wind_Direction
235 273 235 124 20 304 289 274 273 272 292 299 270 285 281 278 272 235 292 327 334 336 336 336 332 319 310 305 307 307 303 301 296 290 281 263 243 230 230 215 204 200 194 202
236 238 88 17 285 275 265 268 270 301 232 292 288 277 277 252 214 230 267 302 321 325 329 330 330 329 313 302 300 303 302 299 304 293 280 278 244 235 219 210 205 195 188 199
268 15 97 254 273 250 255 274 295 306 304 278 268 273 216 182 215 204 239 288 318 327 328 327 326 322 318 306 301 299 304 304 305 297 283 277 257 237 233 214 204 193 187 192
266 147 221 270 264 256 276 50 295 291 296 295 311 297 203 197 201 226 215 273 327 327 322 326 321 320 317 306 304 298 299 302 300 310 306 285 263 240 228 211 198 191 191 188
66 214 252 260 261 141 276 323 290 281 277 281 268 236 271 161 223 229 193 323 309 316 326 327 321 318 314 305 303 301 299 304 301 308 307 297 297 248 221 225 195 194 190 189
268 59 269 257 294 249 290 279 272 257 256 261 254 239 281 288 220 43 293 295 312 319 324 325 323 318 310 311 309 310 299 298 303 309 313 312 314 249 224 222 207 199 193 191
199 223 209 243 256 216 234 281 308 259 196 235 117 256 255 266 176 257 308 308 323 312 327 324 321 320 317 311 317 310 306 299 306 319 316 321 306 266 229 225 203 182 195 194
247 187 194 186 248 316 293 305 277 269 271 303 325 272 262 69 102 161 256 281 300 324 329 323 321 322 316 322 315 314 312 308 314 317 318 326 325 327 247 230 226 190 195 199
260 223 141 206 234 245 129 261 29 304 266 253 239 254 198 135 183 227 254 314 323 337 323 327 326 318 326 319 316 314 312 311 311 313 316 322 330 324 325 244 237 214 200 203
155 264 191 161 230 232 255 25 234 214 277 293 293 301 303 170 255 357 323 327 326 324 325 329 325 329 322 324 319 316 314 311 310 310 314 312 326 324 312 288 239 236 226 207
192 208 149 175 213 233 179 226 227 270 269 279 302 278 74 323 349 311 323 315 330 326 324 330 333 330 324 332 321 317 315 310 310 310 313 317 313 321 320 300 253 237 230 234
205 196 251 233 148 261 272 268 186 221 246 250 288 278 289 332 262 308 312 324 338 321 326 336 327 332 333 325 323 320 319 315 310 311 310 311 313 319 321 319 320 229 222 226
156 220 252 211 194 213 238 228 240 230 264 258 276 265 144 226 267 296 325 340 329 322 331 329 338 324 334 323 321 317 317 314 312 311 306 306 310 311 321 318 296 284 226 222
155 233 231 245 300 331 250 226 232 211 233 256 255 274 284 299 310 324 319 330 320 320 326 337 330 326 324 323 318 319 317 316 313 308 302 299 302 304 309 308 299 294 237 236
217 246 248 257 263 269 267 261 257 250 231 236 267 279 286 286 304 308 316 315 322 320 327 329 326 321 327 326 320 318 318 314 313 308 302 297 294 299 306 305 305 288 226 215
203 254 256 270 272 270 270 266 262 256 256 262 267 273 291 343 309 309 314 328 316 320 329 324 320 327 329 323 318 318 315 313 312 306 299 295 292 292 293 289 299 302 238 203
221 230 250 271 273 279 275 265 269 258 253 259 269 289 320 304 304 320 328 316 320 328 321 317 324 331 326 320 318 313 313 311 309 303 297 293 288 283 284 289 297 302 301 211
213 227 224 269 299 261 231 220 302 302 277 277 273 283 294 304 322 330 306 334 324 320 320 320 327 331 323 318 314 313 312 308 304 299 296 291 287 281 285 285 292 299 317 282
219 237 206 230 249 281 301 291 219 263 279 279 273 286 311 312 326 297 82 334 336 320 314 326 329 328 323 317 314 311 310 310 306 300 296 289 281 270 274 278 297 327 331 311
215 213 218 230 240 244 269 122 66 314 273 145 158 298 300 318 293 296 333 332 318 306 318 339 334 326 320 318 317 315 313 315 308 308 298 292 285 270 262 265 280 302 304 317
203 199 212 224 237 260 246 212 140 240 57 149 313 313 303 297 282 301 322 312 300 318 328 346 335 326 318 318 319 316 315 311 315 305 293 281 272 262 254 260 266 293 322 330
175 184 208 230 230 248 231 164 206 240 225 302 308 310 305 307 302 310 289 297 320 330 330 340 334 324 321 322 324 322 318 319 317 306 287 272 261 251 244 231 235 239 275 281
194 203 194 197 210 238 228 183 218 251 283 302 305 313 309 302 302 286 319 319 329 326 340 339 335 324 325 327 330 324 324 325 327 320 306 254 251 226 235 247 221 212 228 287
222 190 226 222 234 247 204 221 251 249 268 287 298 291 287 287 289 313 316 328 325 325 343 334 336 330 326 331 332 330 331 332 334 327 337 356 12 225 245 222 312 17 341 325
235 202 227 242 235 267 269 252 242 246 265 264 271 274 290 292 307 320 324 324 330 321 340 334 338 332 328 331 335 338 340 340 342 340 352 2 26 44 60 81 45 104 152 281
245 230 232 237 225 245 248 279 280 253 244 234 246 248 248 288 315 329 323 329 332 328 329 335 339 336 331 333 337 344 347 347 348 350 356 3 9 17 31 29 340 37 0 356